Location: Jaite
(41.2884°N, 81.5737°W)
Time: 12:14:20
(UTC+00:00)

Cosmos 371 Rocket - Pass Details

Date: 15 November 2025
Orbit: 674 x 690 km, 74.0° (Epoch: 11 December)

Event Time Altitude Azimuth Distance (km) Brightness Sun altitude
Exits shadow 10:45:35 15° 331° (NNW) 1,830 5.1 -16.8°
Maximum altitude 10:49:31 61° 254° (WSW) 784 3.3 -16.1°
Drops below altitude 10° 10:54:15 10° 175° (S) 2,132 6.0 -15.2°
Sets 10:56:34 0° 172° (S) 3,042 6.9 -14.8°
